Regional Weather Roundup
Issued by NWS

Home | Current Version | Previous Version | Text Only | Print | Product List | Glossary Off
Versions: 1 2 3 4 5 6 7 8 9 10 11 12 13 14 15 16 17 18 19 20 21 22 23 24 25 26 27 28 29 30 31 32 33 34 35 36 37 38 39 40 41 42 43 44 45 46 47 48 49 50

000
ASUS46 KLOX 171802
RWRCA

SOUTHERN CALIFORNIA WEATHER ROUNDUP
NATIONAL WEATHER SERVICE OXNARD CALIFORNIA
1100 AM PDT THU APR 17 2014

NOTE: "FAIR" INDICATES FEW OR NO CLOUDS BELOW 12,000 FEET WITH NO
SIGNIFICANT WEATHER AND/OR OBSTRUCTIONS TO VISIBILITY.

  -  STATIONS PRECEEDED BY AN ASTERISK (*) ARE NOT NWS OR FAA
     STATIONS AND ARE NOT SUBJECT TO NWS AND FAA QUALITY CONTROL.

CAZ041-042-087-171900-
LA AND ORANGE COUNTY COASTAL AREAS


CITY           SKY/WX    TMP DP  RH WIND       PRES   REMARKS
L.A. DOWNTOWN  CLOUDY    64  53  67 VRB3      29.91R
L.A. AIRPORT   CLOUDY    64  51  62 SE6G16    29.93R
LONG BEACH     CLOUDY    64  51  62 S9        29.92R

CITY           SKY/WX    TMP DP  RH WIND       PRES   REMARKS
AVALON           N/A     61 N/A N/A MISG        N/A
FULLERTON      PTSUNNY   65  53  65 S6        29.91R
*GETTY CENTER    N/A     61  52  72 S5G10       N/A
HAWTHORNE      CLOUDY    63  50  62 VRB7      29.93R
*LEO CARRILLO    N/A     64  57  77 E7          N/A
*LOS ALAMITOS  PTSUNNY   64  53  67 VRB6      29.92S
*REDONDO BEACH   N/A     64  54  69 CALM      29.91R
SANTA ANA      CLOUDY    65  53  65 CALM      29.92R
STA MONICA APT CLOUDY    68  52  56 NE3       29.92R
TORRANCE       CLOUDY    64  54  68 E12       29.93R
*UCLA            N/A     64  50  59 S6        29.90R

$$

CAZ547-548-048-171900-
LA COUNTY VALLEYS AND INLAND EMPIRE


CITY           SKY/WX    TMP DP  RH WIND       PRES   REMARKS
BURBANK        MOSUNNY   65  52  62 S7        29.90S
VAN NUYS       PTSUNNY   65  51  60 S7        29.90S

CITY           SKY/WX    TMP DP  RH WIND       PRES   REMARKS
CORONA AIRPORT PTCLDY    64  53  67 CALM      29.91S
*CHATSWORTH      N/A     66  54  65 SE3       29.88S
CHINO          PTSUNNY   65  54  67 CALM      29.92S HAZE
*CLAREMONT       N/A     71  53  52 S3          N/A
MARCH AFB      PTSUNNY   69  47  46 VRB1      29.90S
ONTARIO        PTSUNNY   64  53  67 W5        29.91S
*PASADENA        N/A     66  57  72 CALM        N/A
POMONA         PTSUNNY   64  54  68 CALM      29.93S HAZE
RIVERSIDE      PTSUNNY   66  52  60 VRB3      29.90S
SAN BERNARDINO PTSUNNY   66  50  55 CALM      29.91S
*SAN GABRIEL     N/A     64  52  64 S5        29.89S
*SAN RAFAEL HI   N/A     68  58  70 S5          N/A
*SAUGUS          N/A     74  53  46 E5          N/A
*WHITEMAN AP   MOSUNNY   64  52  63 CALM      29.94R HAZE
*WHITTIER HILL   N/A     72  58  62 S5          N/A
*WOODLAND HILL   N/A     68  52  56 NE3         N/A

$$

CAZ054-055-171900-
LA AND SAN BERNARDINO COUNTY MOUNTAINS


CITY           SKY/WX    TMP DP  RH WIND       PRES   REMARKS
*ACTON           N/A     76  42  29 SW8         N/A
*BIG BEAR AIRP CLEAR     64  21  19 S6        30.09R
*BIG PINES       N/A     66  25  21 S2          N/A
*CHILAO          N/A     70  31  23 W6          N/A
MT WILSON NWS    N/A     70  37  30 SW1         N/A
SANDBERG       MOSUNNY   68  39  34 S10       29.99R
*WARM SPRINGS    N/A     72  44  35 CALM        N/A

$$

CAZ028-029-059-060-099-171900-
ANTELOPE VALLEY AND SURROUNDING AREAS


CITY           SKY/WX    TMP DP  RH WIND       PRES   REMARKS
LANCASTER      SUNNY     76  32  20 CALM      29.90R
PALMDALE       SUNNY     77  33  20 CALM      29.90S
*POPPY PARK      N/A     76  42  29 S13         N/A

CITY           SKY/WX    TMP DP  RH WIND       PRES   REMARKS
29 PALMS       MOSUNNY   82  32  16 SE18      29.95S
BARSTOW/DAGGET MOSUNNY   79  28  15 CALM      29.88S
BISHOP         SUNNY     75  24  15 S6        29.89F
CHINA LAKE     PTSUNNY   78  34  20 VRB3      29.88S
MOJAVE         FAIR      73  32  21 CALM      29.91F
NEEDLES        SUNNY     87  17   7 VRB5      29.87F
VICTORVILLE    MOSUNNY   73  30  20 CALM      29.91S

$$

CAZ039-040-171900-
VENTURA AND SANTA BARBARA COUNTY COAST


CITY           SKY/WX    TMP DP  RH WIND       PRES   REMARKS
CAMARILLO      PTSUNNY   67  53  61 SW10      29.90S
NWS OXNARD       N/A     65  54  68 S6        29.91R
OXNARD AIRPORT PTSUNNY   64  53  67 S13G18    29.91R
*POINT MUGU    PTSUNNY   69  54  58 S15       29.91R HAZE
SBA APT/GOLETA CLOUDY    61  53  75 SE6       29.92R
*SANTA BARBARA   N/A     63  52  68 W5        30.00S
*VENTURA         N/A     65  55  69 SW5       29.96S

$$

CAZ044-045-171900-
VENTURA COUNTY VALLEYS


CITY           SKY/WX    TMP DP  RH WIND       PRES   REMARKS
*SIMI VALLEY     N/A     69  55  60 CALM      29.86S
*OJAI            N/A     68  56  67 NW1       29.85F
*FILLMORE        N/A     69  58  68 CALM      29.80S

$$

CAZ053-171900-
VENTURA COUNTY MOUNTAINS


CITY           SKY/WX    TMP DP  RH WIND       PRES   REMARKS
*LOCKWOOD VLY    N/A     70  27  19 MISG        N/A
*ROSE VALLEY     N/A     64  50  59 MISG        N/A

$$

CAZ034-035-036-171900-
CENTRAL COAST AND SANTA YNEZ VALLEY


CITY           SKY/WX    TMP DP  RH WIND       PRES   REMARKS
SAN LUIS OBISP CLOUDY    58  53  84 E3        29.93R FOG
SANTA MARIA    CLOUDY    59  52  77 CALM      29.94R HAZE

CITY           SKY/WX    TMP DP  RH WIND       PRES   REMARKS
*CAL POLY SLO    N/A     55  54  94 S5          N/A
*CAMBRIA         N/A     55  52  90 NW1       29.82R
*LOMPOC        CLOUDY    55  52  88 SW6       29.95R
*PISMO BEACH     N/A     56  54  92 CALM      29.94S
*SANTA YNEZ    CLOUDY    55  54  94 CALM      29.92S

$$

CAZ037-038-051-171900-
SAN LUIS OBISPO COUNTY INTERIOR AND CUYAMA VALLEY


CITY           SKY/WX    TMP DP  RH WIND       PRES   REMARKS
*CUYAMA          N/A     71  35  27 CALM      29.71R
PASO ROBLES    CLOUDY    66  49  54 SW9       29.88S

$$

CAZ032-033-061-171900-
SOUTHERN DESERTS


CITY           SKY/WX    TMP DP  RH WIND       PRES   REMARKS
BLYTHE         SUNNY     84  31  14 S13       29.88S
IMPERIAL       SUNNY     79  58  48 VRB3      29.85S
PALM SPRINGS   SUNNY     78  45  30 VRB3      29.90S
THERMAL        SUNNY     80  48  32 SW6       29.86S

$$

ELSEWHERE ACROSS THE WESTERN UNITED STATES AND MEXICO


CITY           SKY/WX    TMP DP  RH WIND       PRES   REMARKS
DENVER, CO     PTSUNNY   58  23  26 CALM      30.07F
GRAND CANYON,  SUNNY     66  19  16 SW10G21   30.15S
HONOLULU, HI   MOSUNNY   77  63  61 NE13G24   30.11R
KAHULUI, MAUI  LGT RAIN  73  68  84 NE13G20   30.12R
LAKE TAHOE, CA SUNNY     62  35  36 VRB5      29.98F
LAS VEGAS, NV  MOSUNNY   77  23  13 SE6       29.88F
MAMMOTH LAKES, FAIR      59  23  25 CALM      30.04S
MEXICO CITY, M MOSUNNY   75  41  29 W3        30.24F
PHOENIX, AZ    SUNNY     85  20   9 S3        29.92F
PORTLAND, OR   LGT RAIN  53  50  89 S8        29.88F
RENO, NV       MOSUNNY   66  28  24 E5        29.91F
SALT LAKE CITY MOSUNNY   62  19  19 S16G24    30.03F
SAN DIEGO, CA  CLOUDY    62  52  69 S8        29.94R
SAN FRANCISCO, MOSUNNY   59  50  72 W18       29.88S
SAN JOSE, CA   PTSUNNY   64  52  64 NW7       29.87R
SEATTLE, WA    LGT RAIN  52  49  89 S10       29.84S
TIJUANA, MEX   PTSUNNY   64  50  59 NW5       29.94R

$$

STATION/POSITION TIME  TEMP    WIND        PRES    VSBY  WAVE
                       AIR SEA DIR/SP/G                  HT/PER
                 (UTC) (F)     (DEG/KT/KT) (MB)    (MI)  (FT/S)
POINT ARGUELLO B NOT AVBL
WEST SANTA BARBA 1700   55 54  320/  2/  4 1012.6R         8/11
POINT CONCEPTION NOT AVBL
EAST SANTA BARBA NOT AVBL
SANTA MONICA BAY 1700   59 60  120/ 10/ 12 1012.2R         3/14



USA.gov is the U.S. government's official web portal to all federal, state and local government web resources and services.